Location: Mentone
(34.5413°N, 85.5351°W)
Time: 21:40:03
(UTC-06:00)

Tiros 1 despin weight - All Passes

Search period start: 22 December 2014 00:00
Search period end: 01 January 2015 00:00
Orbit: 600 x 649 km, 48.2° (Epoch: 21 December)

Date Brightness Start Highest point End Pass type
(mag) Time Alt. Az. Time Alt. Az. Time Alt. Az.
22 Dec - 07:50:53 10° SW 07:55:17 65° SE 07:59:40 10° ENE daylight
22 Dec - 09:33:28 10° W 09:37:14 27° NNW 09:41:01 10° NE daylight
22 Dec - 11:17:46 10° NW 11:20:07 14° N 11:22:29 10° NNE daylight
22 Dec - 12:59:57 10° NNW 13:03:11 19° NNE 13:06:26 10° ENE daylight
22 Dec - 14:41:03 10° NW 14:45:31 66° NE 14:50:01 10° ESE daylight
22 Dec - 16:23:41 10° W 16:26:52 19° SW 16:30:05 10° S daylight
23 Dec - 06:29:22 10° S 06:32:38 20° SE 06:35:54 10° E daylight
23 Dec - 08:09:37 10° WSW 08:14:00 61° NW 08:18:24 10° NE daylight
23 Dec - 09:53:16 10° WNW 09:56:23 18° NNW 09:59:30 10° NNE daylight
23 Dec - 11:37:04 10° NNW 11:39:28 14° N 11:41:52 10° NE daylight
23 Dec - 13:18:26 10° NW 13:22:19 28° NNE 13:26:12 10° E daylight
23 Dec - 14:59:49 10° WNW 15:04:14 60° SW 15:08:42 10° SE daylight
24 Dec - 06:46:53 10° SSW 06:51:08 45° SE 06:55:22 10° ENE daylight
24 Dec - 08:28:53 10° W 08:32:54 33° NNW 08:36:56 10° NE daylight
24 Dec - 10:13:08 10° NW 10:15:39 15° N 10:18:10 10° NNE daylight
24 Dec - 11:55:51 10° NNW 11:58:45 17° NNE 12:01:41 10° NE daylight
24 Dec - 13:36:56 10° NW 13:41:16 48° NNE 13:45:38 10° ESE daylight
24 Dec - 15:19:00 10° WNW 15:22:47 27° SW 15:26:36 10° S daylight
25 Dec - 05:26:16 10° SSE 05:28:34 14° SE 05:30:53 10° E visible
25 Dec - 07:05:19 10° SW 07:09:47 84° NW 07:14:14 10° NE daylight
25 Dec - 08:48:32 10° WNW 08:51:58 21° NNW 08:55:23 10° NNE daylight
25 Dec - 10:32:41 10° NNW 10:34:58 14° N 10:37:16 10° NNE daylight
25 Dec - 12:14:21 10° NNW 12:17:56 23° NNE 12:21:32 10° ENE daylight
25 Dec - 13:55:34 10° NW 14:00:02 85° SW 14:04:33 10° SE daylight
25 Dec - 15:39:33 10° WSW 15:41:11 12° SW 15:42:50 10° SSW daylight
26 Dec - 05:43:02 10° SSW 05:47:00 31° SE 05:50:56 10° ENE visible
26 Dec - 07:24:20 10° WSW 07:28:35 42° NNW 07:32:49 10° NE daylight
26 Dec - 09:08:24 10° NW 09:11:10 16° NNW 09:13:55 10° NNE daylight
26 Dec - 10:51:39 10° NNW 10:54:17 15° N 10:56:54 10° NE daylight
26 Dec - 12:32:48 10° NW 12:36:57 37° NNE 12:41:07 10° E daylight
26 Dec - 14:14:29 10° WNW 14:18:38 38° SW 14:22:49 10° SSE daylight
27 Dec - 06:01:06 10° SW 06:05:33 70° SE 06:09:59 10° ENE visible
27 Dec - 07:43:49 10° W 07:47:33 25° NNW 07:51:16 10° NNE daylight
27 Dec - 09:28:08 10° NW 09:30:27 14° N 09:32:46 10° NNE daylight
27 Dec - 11:10:14 10° NNW 11:13:30 20° NNE 11:16:46 10° ENE daylight
27 Dec - 12:51:20 10° NW 12:55:47 70° NE 13:00:15 10° ESE daylight
27 Dec - 14:34:08 10° W 14:37:05 17° SW 14:40:03 10° S daylight
28 Dec - 04:39:23 10° S 04:42:51 22° SE 04:46:18 10° E visible
28 Dec - 06:19:51 10° WSW 06:24:15 57° NW 06:28:39 10° NE visible
28 Dec - 08:03:36 10° WNW 08:06:40 18° NNW 08:09:44 10° NNE daylight
28 Dec - 09:47:21 10° NNW 09:49:45 14° N 09:52:09 10° NE daylight
28 Dec - 11:28:40 10° NW 11:32:34 29° NNE 11:36:29 10° E daylight
28 Dec - 13:10:05 10° WNW 13:14:26 55° SW 13:18:49 10° SE daylight
29 Dec - 04:56:59 10° SSW 05:01:19 49° SE 05:05:38 10° ENE visible
29 Dec - 06:39:07 10° W 06:43:08 31° NNW 06:47:07 10° NE daylight
29 Dec - 08:23:25 10° NW 08:25:54 14° N 08:28:22 10° NNE daylight
29 Dec - 10:06:03 10° NNW 10:09:00 17° NNE 10:11:57 10° NE daylight
29 Dec - 11:47:08 10° NW 11:51:28 51° NNE 11:55:49 10° ESE daylight
29 Dec - 13:29:18 10° WNW 13:32:56 25° SW 13:36:35 10° S daylight
30 Dec - 03:36:03 10° SSE 03:38:41 15° SE 03:41:19 10° E visible
30 Dec - 05:15:26 10° WSW 05:19:56 78° NW 05:24:25 10° NE visible
30 Dec - 06:58:46 10° WNW 07:02:10 21° NNW 07:05:33 10° NNE daylight
30 Dec - 08:42:53 10° NNW 08:45:11 14° N 08:47:29 10° NNE daylight
30 Dec - 10:24:30 10° NNW 10:28:07 24° NNE 10:31:45 10° ENE daylight
30 Dec - 12:05:44 10° NW 12:10:11 79° SW 12:14:39 10° SE daylight
30 Dec - 13:50:22 10° WSW 13:51:17 11° SW 13:52:13 10° SW daylight
31 Dec - 03:53:00 10° SSW 03:57:05 34° SE 04:01:09 10° ENE visible
31 Dec - 05:34:28 10° W 05:38:43 40° NNW 05:42:56 10° NE visible
31 Dec - 07:18:36 10° NW 07:21:20 16° N 07:24:03 10° NNE daylight
31 Dec - 09:01:47 10° NNW 09:04:27 15° N 09:07:07 10° NE daylight
31 Dec - 10:42:55 10° NW 10:47:05 39° NNE 10:51:15 10° E daylight
31 Dec - 12:24:41 10° WNW 12:28:44 35° SW 12:32:48 10° SSE daylight
